"Pseudo-MPEC" for P11XxhQ

Created 2024 Sep 5 18:22:18 UT using Find_Orb

Click here for an explanation of pseudo-MPECs

 
 Astrometry: 
     P11XxhQ* C2024 08 27.41254522 53 38.728-26 53 51.34   ~8RC7 21.33wXNEOCPF51
     P11XxhQ  C2024 08 27.42374322 53 38.757-26 54 00.64   ~8RC7 21.66wXNEOCPF51
     P11XxhQ  C2024 08 27.43493622 53 38.779-26 54 09.79   ~8RC7 21.72wXNEOCPF51
     P11XxhQ  C2024 08 27.44615022 53 38.810-26 54 19.16   ~8RC7 21.44wXNEOCPF51
     P11XxhQ KC2024 08 30.29374822 54 04.565-27 30 59.47   ~8UBb 20.56GVNEOCPI52
     P11XxhQ KC2024 08 30.30568922 54 04.594-27 31 08.26   ~8UBb 21.74GVNEOCPI52
     P11XxhQ KC2024 08 30.31167722 54 04.576-27 31 13.01   ~8UBb 22.27GVNEOCPI52
     P11XxhQ  C2024 09 04.39487522 54 40.950-28 26 20.32   ~94JM 21.36wXNEOCPF51
     P11XxhQ  C2024 09 04.40588522 54 40.934-28 26 26.53   ~94JM 21.71wXNEOCPF51
     P11XxhQ  C2024 09 04.42476622 54 40.893-28 26 37.29   ~94JM 21.87wXNEOCPF51
     P11XxhQ  C2024 09 04.43713122 54 40.876-28 26 44.47   ~94JM 21.48wXNEOCPF51

Station data:
(F51) Pan-STARRS 1, Haleakala  (N20.707234 W156.255910)  US/Hawaii.
   Observers J. Bulger, T. Lowe, A. Schultz, M. Willman. Measurers K.
   Chambers, S. Chastel, T. de Boer, L. Denneau, J. Fairlamb, H. Flewelling,
   M. Huber, C.-C. Lin, E. Magnier, Y. Ramanjooloo, R. Wainscoat, R. Weryk.
   1.8-m Ritchey-Chrétien + CCD.
(I52) Steward Observatory, Mt. Lemmon Station  (N32.442570 W110.788920)
   US/Arizona.  Observers T. A. Pruyne, B. M. Africano, E. J. Christensen, G.
   A. Farneth, D. C. Fuls, A. R. Gibbs, A. D. Grauer, H. Gröller, J. A.
   Johnson, R. A. Kowalski, S. M. Larson, G. J. Leonard, D. Rankin, R. L.
   Seaman, F. C. Shelly, K. W. Wierzchoś. 1.0-m prime focus + CCD.

Orbital elements:  P11XxhQ
   Perihelion 2024 Aug 30.96879 +/- 2.69 TT = 23:15:03 (JD 2460553.46879)
Epoch 2024 Sep  4.0 TT = JDT 2460557.5   Earth MOID: 0.4733      AutoNEOCP
M   1.09175142 +/- 0.6              (J2000 ecliptic)
n   0.27082490 +/- 0.0095           Peri.  223.93394 +/- 2.4
a   2.36597589 +/- 0.0553           Node   112.96662 +/- 0.6
e   0.3794413 +/- 0.00955           Incl.    8.78074 +/- 0.26
P   3.63928                H 21.53  G  0.15   U  9.6
q 1.46822672 +/- 0.0117    Q 3.26372506 +/- 0.0989
From 11 observations 2024 Aug. 27-Sept. 4; mean residual 0".11
Residuals in arcseconds: 
240827 F51  .08-  .11+    240830 I52  .11-  .11+    240904 F51  .07+  .06+    
240827 F51  .01-  .03+    240830 I52  .15+  .12+    240904 F51  .09-  .10+    
240827 F51  .01-  .04+    240830 I52  .15-  .23-    240904 F51  .06-  .08-    
240827 F51  .11+  .19-    240904 F51  .08+  .08-    

Ephemerides (geocentric):
Date (UTC) HH   RA             Dec           delta  r     elong  mag " sig PA
---- --------  ------------   ------------  ------ ------ -----  --- --------
2024 09 05 18  22 54 49.522   -28 38 22.60  .48526 1.4691 157.9 21.6 1.00 175
2024 09 05 19  22 54 49.797   -28 38 44.20  .48534 1.4691 157.9 21.6 1.02 175
2024 09 05 20  22 54 50.072   -28 39 05.73  .48542 1.4691 157.9 21.6 1.04 175
2024 09 05 21  22 54 50.347   -28 39 27.20  .48549 1.4691 157.8 21.6 1.06 176
2024 09 05 22  22 54 50.622   -28 39 48.61  .48557 1.4691 157.8 21.6 1.08 176
2024 09 05 23  22 54 50.898   -28 40 09.95  .48565 1.4692 157.8 21.6 1.10 176
2024 09 06 00  22 54 51.174   -28 40 31.24  .48572 1.4692 157.8 21.6 1.13 176
2024 09 06 01  22 54 51.450   -28 40 52.46  .48580 1.4692 157.7 21.6 1.15 177
2024 09 06 02  22 54 51.726   -28 41 13.62  .48588 1.4692 157.7 21.6 1.17 177
2024 09 06 03  22 54 52.002   -28 41 34.72  .48595 1.4692 157.7 21.6 1.20 177
2024 09 06 04  22 54 52.279   -28 41 55.75  .48603 1.4692 157.7 21.6 1.22 177
2024 09 06 05  22 54 52.556   -28 42 16.73  .48611 1.4692 157.6 21.6 1.25 177
2024 09 06 06  22 54 52.833   -28 42 37.64  .48619 1.4693 157.6 21.6 1.27 178
2024 09 06 07  22 54 53.110   -28 42 58.48  .48627 1.4693 157.6 21.6 1.30 178
2024 09 06 08  22 54 53.388   -28 43 19.27  .48635 1.4693 157.6 21.6 1.32 178
2024 09 06 09  22 54 53.665   -28 43 39.99  .48642 1.4693 157.6 21.6 1.35 178
2024 09 06 10  22 54 53.943   -28 44 00.65  .48650 1.4693 157.5 21.6 1.37 178
2024 09 06 11  22 54 54.222   -28 44 21.25  .48658 1.4693 157.5 21.6 1.40 179
2024 09 06 12  22 54 54.500   -28 44 41.78  .48666 1.4693 157.5 21.6 1.43 179
2024 09 06 13  22 54 54.779   -28 45 02.25  .48674 1.4694 157.5 21.6 1.46 179
2024 09 06 14  22 54 55.059   -28 45 22.66  .48682 1.4694 157.4 21.6 1.48 179
2024 09 06 15  22 54 55.338   -28 45 43.01  .48690 1.4694 157.4 21.6 1.51 179
2024 09 06 16  22 54 55.618   -28 46 03.29  .48699 1.4694 157.4 21.6 1.54   0
2024 09 06 17  22 54 55.898   -28 46 23.51  .48707 1.4694 157.4 21.7 1.57   0
2024 09 06 18  22 54 56.179   -28 46 43.67  .48715 1.4694 157.3 21.7 1.60   0
2024 09 06 19  22 54 56.459   -28 47 03.76  .48723 1.4694 157.3 21.7 1.63   0
2024 09 06 20  22 54 56.741   -28 47 23.79  .48731 1.4695 157.3 21.7 1.66   0
2024 09 06 21  22 54 57.022   -28 47 43.76  .48739 1.4695 157.3 21.7 1.69   1
2024 09 06 22  22 54 57.304   -28 48 03.66  .48747 1.4695 157.2 21.7 1.72   1
2024 09 06 23  22 54 57.586   -28 48 23.51  .48756 1.4695 157.2 21.7 1.76   1
2024 09 07 00  22 54 57.869   -28 48 43.28  .48764 1.4695 157.2 21.7 1.79   1
2024 09 07 01  22 54 58.152   -28 49 03.00  .48772 1.4695 157.2 21.7 1.82   1
2024 09 07 02  22 54 58.435   -28 49 22.65  .48781 1.4695 157.1 21.7 1.86   1
2024 09 07 03  22 54 58.719   -28 49 42.24  .48789 1.4696 157.1 21.7 1.89   2
2024 09 07 04  22 54 59.003   -28 50 01.76  .48797 1.4696 157.1 21.7 1.92   2
2024 09 07 05  22 54 59.287   -28 50 21.22  .48806 1.4696 157.1 21.7 1.96   2
2024 09 07 06  22 54 59.572   -28 50 40.62  .48814 1.4696 157.1 21.7 1.99   2
2024 09 07 07  22 54 59.857   -28 50 59.96  .48823 1.4696 157.0 21.7 2.03   2
2024 09 07 08  22 55 00.143   -28 51 19.23  .48831 1.4696 157.0 21.7 2.07   3
2024 09 07 09  22 55 00.429   -28 51 38.43  .48840 1.4697 157.0 21.7 2.10   3
2024 09 07 10  22 55 00.716   -28 51 57.58  .48848 1.4697 157.0 21.7 2.14   3
2024 09 07 11  22 55 01.003   -28 52 16.66  .48857 1.4697 156.9 21.7 2.18   3
2024 09 07 12  22 55 01.290   -28 52 35.67  .48865 1.4697 156.9 21.7 2.21   3
2024 09 07 13  22 55 01.578   -28 52 54.62  .48874 1.4697 156.9 21.7 2.25   3
2024 09 07 14  22 55 01.866   -28 53 13.51  .48882 1.4697 156.9 21.7 2.29   3
2024 09 07 15  22 55 02.155   -28 53 32.34  .48891 1.4698 156.8 21.7 2.33   4
2024 09 07 16  22 55 02.445   -28 53 51.10  .48900 1.4698 156.8 21.7 2.37   4
2024 09 07 17  22 55 02.734   -28 54 09.80  .48908 1.4698 156.8 21.7 2.41   4